Location: PSU-Greenbush Astrophysical Observatory
(37.5140°N, 94.9880°W)
Time: 11:17:49
(UTC-06:00)

Tiros 1 - Visible Passes

Search period start: 19 January 2020 00:00
Search period end: 29 January 2020 00:00
Orbit: 630 x 664 km, 48.4° (Epoch: 19 January)

Date Brightness Start Highest point End Pass type
(mag) Time Alt. Az. Time Alt. Az. Time Alt. Az.
19 Jan 8.4 19:06:07 10° NW 19:10:11 27° NNE 19:10:37 26° NNE visible
19 Jan 10.2 20:48:09 10° NW 20:48:17 11° NW 20:48:17 11° NW visible
20 Jan 8.7 17:49:44 10° NW 17:53:28 22° N 17:57:12 10° NE visible
20 Jan 8.1 19:32:08 10° NW 19:35:45 35° N 19:35:45 35° N visible
21 Jan 8.4 18:16:04 10° NW 18:20:04 26° NNE 18:23:19 14° ENE visible
21 Jan 8.4 19:58:06 10° NW 20:01:00 36° NW 20:01:00 36° NW visible
22 Jan 7.9 18:42:06 10° NW 18:46:33 37° NNE 18:48:40 25° ENE visible
22 Jan 9.2 20:24:14 10° WNW 20:26:22 25° WNW 20:26:22 25° WNW visible
23 Jan 7.2 19:08:04 10° NW 19:12:50 65° NNE 19:14:10 44° E visible
23 Jan 10.0 20:50:51 10° W 20:51:52 15° W 20:51:52 15° W visible
24 Jan 7.5 19:34:09 10° WNW 19:38:53 62° SW 19:39:52 49° S visible
25 Jan 7.3 18:18:01 10° NW 18:22:45 61° NNE 18:27:30 10° ESE visible
25 Jan 8.9 20:00:42 10° WNW 20:04:43 27° SW 20:05:48 25° SSW visible
26 Jan 7.5 18:44:05 10° WNW 18:48:50 67° SW 18:53:36 10° SE visible
26 Jan 10.1 20:29:05 10° WSW 20:30:21 11° SW 20:31:38 10° SW visible
27 Jan 9.0 19:10:33 10° WNW 19:14:42 29° SW 19:18:50 10° SSE visible
28 Jan 10.1 19:38:27 10° WSW 19:40:21 12° SW 19:42:14 10° SSW visible
